Weather History for KGWO - December, 2012

Change the Weather History Date:

Monday, December 3, 2012

  Actual Average Record
Temperature  
Mean Temperature 67 °F 49 °F  
Max Temperature 77 °F 60 °F 80 °F (1978)
Min Temperature 57 °F 38 °F 22 °F (1976)
Degree Days  
Heating Degree Days 0 17  
Month to date heating degree days 7 49  
Since 1 July heating degree days 604 517  
Cooling Degree Days 2 0  
Month to date cooling degree days 5 0  
Year to date cooling degree days 2246 2159  
Growing Degree Days 17 (Base 50)    
Moisture  
Dew Point 58 °F    
Average Humidity 70    
Maximum Humidity 93    
Minimum Humidity 47    
Precipitation  
Precipitation 0.00 in 0.21 in 3.80 in (1983)
Month to date precipitation 0.00 0.61  
Year to date precipitation 37.19 46.73  
Sea Level Pressure  
Sea Level Pressure 30.15 in    
Wind  
Wind Speed 11 mph (South)    
Max Wind Speed 18 mph    
Max Gust Speed 23 mph    
Visibility 10 miles    
Events      
T = Trace of Precipitation, MM = Missing Value Source: NWS Daily Summary

Daily Weather History Graph

Daily Weather History Graph

Search for Another Location

Airport or City:

Trip Planner

Search our weather history database for the weather conditions in past years. The results will help you decide how hot, cold, wet, or windy it might be!

Date:

Astronomy

Dec. 03, 2012 Rise Set
Actual Time 6:48 AM CST 4:52 PM CST
Civil Twilight 6:21 AM CST 5:19 PM CST
Nautical Twilight 5:50 AM CST 5:50 PM CST
Astronomical Twilight 5:20 AM CST 6:20 PM CST
Moon 9:31 PM CST (12/3) 10:18 AM CST (12/3)
Length of Visible Light 10h 58m
Length of Day
10h 03m
Waning Gibbous, 78% of the Moon is Illuminated
Dec 3
Waning Gibbous
Dec 6
Last Quarter
Dec 13
New
Dec 19
First Quarter
Dec 28
Full

Hourly Weather History & Observations

Time (CST) Temp. Dew Point Humidity Pressure Visibility Wind Dir Wind Speed Gust Speed Precip Events Conditions
12:53 AM 59.0 °F 57.0 °F 93% 30.18 in 10.0 mi South 8.1 mph - N/A   Clear
1:53 AM 60.1 °F 57.9 °F 93% 30.19 in 10.0 mi South 8.1 mph - N/A   Clear
2:53 AM 60.1 °F 57.9 °F 93% 30.18 in 10.0 mi South 8.1 mph - N/A   Scattered Clouds
3:53 AM 59.0 °F 57.0 °F 93% 30.18 in 10.0 mi South 6.9 mph - N/A   Scattered Clouds
4:53 AM 57.9 °F 55.9 °F 93% 30.18 in 10.0 mi South 5.8 mph - N/A   Partly Cloudy
5:53 AM 59.0 °F 57.0 °F 93% 30.18 in 10.0 mi SSE 8.1 mph - N/A   Clear
6:53 AM 57.0 °F 55.9 °F 96% 30.20 in 10.0 mi South 4.6 mph - N/A   Clear
7:53 AM 61.0 °F 57.9 °F 90% 30.21 in 10.0 mi South 9.2 mph - N/A   Clear
8:53 AM 64.4 °F 60.8 °F 88% 30.21 in 10.0 mi South 10.4 mph - N/A   Clear
9:53 AM 68.0 °F 61.0 °F 78% 30.21 in 10.0 mi South 12.7 mph - N/A   Mostly Cloudy
10:53 AM 72.0 °F 60.1 °F 66% 30.19 in 10.0 mi South 16.1 mph - N/A   Mostly Cloudy
11:53 AM 75.0 °F 57.0 °F 53% 30.15 in 10.0 mi South 16.1 mph - N/A   Partly Cloudy
12:53 PM 75.9 °F 57.0 °F 52% 30.12 in 10.0 mi South 11.5 mph - N/A   Clear
1:53 PM 77.0 °F 55.9 °F 48% 30.11 in 10.0 mi South 13.8 mph 23.0 mph N/A   Clear
2:53 PM 75.9 °F 57.0 °F 52% 30.09 in 10.0 mi South 13.8 mph - N/A   Scattered Clouds
3:53 PM 73.9 °F 57.9 °F 57% 30.09 in 10.0 mi South 16.1 mph - N/A   Overcast
4:53 PM 72.0 °F 59.0 °F 64% 30.11 in 10.0 mi SSE 10.4 mph - N/A   Overcast
5:53 PM 70.0 °F 59.0 °F 68% 30.10 in 10.0 mi SSE 11.5 mph - N/A   Mostly Cloudy
6:53 PM 70.0 °F 59.0 °F 68% 30.12 in 10.0 mi SSE 10.4 mph - N/A   Overcast
7:53 PM 68.0 °F 59.0 °F 73% 30.11 in 10.0 mi SSE 9.2 mph - N/A   Scattered Clouds
8:53 PM 68.0 °F 59.0 °F 73% 30.12 in 10.0 mi South 10.4 mph - N/A   Scattered Clouds
9:53 PM 68.0 °F 59.0 °F 73% 30.12 in 10.0 mi South 11.5 mph - N/A   Mostly Cloudy
10:53 PM 68.0 °F 59.0 °F 73% 30.12 in 10.0 mi South 13.8 mph - N/A   Overcast
11:53 PM 66.2 °F 59.0 °F 78% 30.12 in 10.0 mi South 15.0 mph - N/A   Overcast